Willimantic, CT

3:16 PM EST on December 05, 2019 (GMT -0500)
Windham

Weather History for KIJD - October, 2019

Change the Weather History Date:

Saturday, October 5, 2019

  Actual Average Record
Temperature  
Mean Temperature 46 °F -  
Max Temperature 60 °F 66 °F 84 °F (1959)
Min Temperature 32 °F 40 °F 24 °F (1963)
Degree Days  
Heating Degree Days 20    
Moisture  
Dew Point 33 °F    
Average Humidity 68    
Maximum Humidity 97    
Minimum Humidity 32    
Precipitation  
Precipitation 0.00 in - - ()
Sea Level Pressure  
Sea Level Pressure 30.43 in    
Wind  
Wind Speed 1 mph ()    
Max Wind Speed 8 mph    
Max Gust Speed -    
Visibility 10.0 miles    
Events      
Averages and records for this station are not official NWS values.
T = Trace of Precipitation, MM = Missing Value Source: Averaged Metar Reports

Daily Weather History Graph

Daily Weather History Graph

Search for Another Location

Airport or City:

Astronomy

Oct. 05, 2019 Rise Set
Actual Time 6:49 AM EDT 6:24 PM EDT
Civil Twilight 6:21 AM EDT 6:51 PM EDT
Nautical Twilight 5:49 AM EDT 7:23 PM EDT
Astronomical Twilight 5:17 AM EDT 7:56 PM EDT
Moon 2:17 PM EDT 11:39 PM EDT
Length of Visible Light 12h 29m
Length of Day
11h 34m
Waxing Crescent, 50% of the Moon is Illuminated
Oct 5
Waxing Crescent
Oct 5
First Quarter
Oct 13
Full
Oct 21
Last Quarter
Oct 27
New

Hourly Weather History & Observations

Time (EDT) Temp. Windchill Dew Point Humidity Pressure Visibility Wind Dir Wind Speed Gust Speed Precip Events Conditions
12:52 AM 42.1 °F - 34.0 °F 73% 30.36 in 10.0 mi Calm Calm - N/A   Clear
1:52 AM 39.9 °F - 34.0 °F 79% 30.39 in 10.0 mi Calm Calm - N/A   Clear
2:52 AM 37.9 °F - 33.1 °F 83% 30.39 in 10.0 mi Calm Calm - N/A   Clear
3:52 AM 36.0 °F - 33.1 °F 89% 30.41 in 10.0 mi Calm Calm - N/A   Clear
4:52 AM 34.0 °F - 32.0 °F 92% 30.42 in 10.0 mi Calm Calm - N/A   Clear
5:52 AM 34.0 °F - 32.0 °F 92% 30.44 in 10.0 mi Calm Calm - N/A   Clear
6:52 AM 32.0 °F - 30.0 °F 92% 30.46 in 10.0 mi Calm Calm - N/A   Clear
7:52 AM 35.1 °F - 33.1 °F 92% 30.47 in 10.0 mi Calm Calm - N/A   Clear
8:52 AM 43.0 °F 38.8 °F 35.1 °F 74% 30.48 in 10.0 mi North 6.9 mph - N/A   Clear
9:52 AM 50.0 °F - 34.0 °F 54% 30.48 in 10.0 mi NNW 8.1 mph - N/A   Clear
10:52 AM 53.1 °F - 30.9 °F 43% 30.47 in 10.0 mi NE 8.1 mph - N/A   Clear
11:52 AM 55.0 °F - 28.9 °F 37% 30.46 in 10.0 mi Variable 3.5 mph - N/A   Clear
12:52 PM 55.9 °F - 30.0 °F 37% 30.44 in 10.0 mi Variable 3.5 mph - N/A   Clear
1:52 PM 57.9 °F - 28.0 °F 32% 30.43 in 10.0 mi West 3.5 mph - N/A   Clear
2:52 PM 59.0 °F - 28.9 °F 32% 30.41 in 10.0 mi Calm Calm - N/A   Clear
3:52 PM 59.0 °F - 30.9 °F 35% 30.40 in 10.0 mi Calm Calm - N/A   Clear
4:52 PM 59.0 °F - 30.9 °F 35% 30.39 in 10.0 mi Calm Calm - N/A   Clear
5:52 PM 57.0 °F - 30.9 °F 37% 30.41 in 10.0 mi South 3.5 mph - N/A   Clear
6:52 PM 51.1 °F - 37.0 °F 59% 30.41 in 10.0 mi South 3.5 mph - N/A   Clear
7:52 PM 48.9 °F - 37.9 °F 66% 30.42 in 10.0 mi Calm Calm - N/A   Clear
8:52 PM 42.1 °F - 39.0 °F 89% 30.42 in 10.0 mi Calm Calm - N/A   Clear
9:52 PM 39.9 °F - 37.9 °F 93% 30.42 in 10.0 mi Calm Calm - N/A   Clear
10:52 PM 39.0 °F - 37.0 °F 93% 30.42 in 10.0 mi Calm Calm - N/A   Clear
11:21 PM 37.9 °F - 36.0 °F 93% 30.42 in 10.0 mi Calm Calm - N/A   Scattered Clouds
11:52 PM 37.9 °F - 37.0 °F 97% 30.43 in 10.0 mi Calm Calm - N/A   Overcast